| time (UTC) | temp F | wind direction | speed MPH | gust MPH | rain 1hr in | rain 24hr in | rain mn in | humidity % | barometer mb |
| 20260906211017 | 88 | 123 | 3.0 | 11.0 | 0.00 | 0.00 | 0.00 | 35 | 1018.8 |
| 20260906210526 | 88 | 85 | 3.0 | 13.0 | 0.00 | 0.00 | 0.00 | 36 | 1018.9 |
| 20260906210055 | 89 | 113 | 3.0 | 13.0 | 0.00 | 0.00 | 0.00 | 36 | 1019.0 |
| 20260906205519 | 88 | 120 | 5.0 | 12.0 | 0.00 | 0.00 | 0.00 | 36 | 1019.1 |
| 20260906205016 | 89 | 121 | 5.0 | 12.0 | 0.00 | 0.00 | 0.00 | 35 | 1019.1 |
| 20260906204541 | 88 | 111 | 3.0 | 12.0 | 0.00 | 0.00 | 0.00 | 36 | 1019.2 |
| 20260906204018 | 88 | 119 | 5.0 | 13.0 | 0.00 | 0.00 | 0.00 | 35 | 1019.3 |
| 20260906203519 | 88 | 166 | 3.0 | 13.0 | 0.00 | 0.00 | 0.00 | 36 | 1019.4 |
| 20260906203039 | 88 | 134 | 6.0 | 12.0 | 0.00 | 0.00 | 0.00 | 36 | 1019.3 |
| 20260906202518 | 88 | 117 | 2.0 | 11.0 | 0.00 | 0.00 | 0.00 | 36 | 1019.4 |
| 20260906202020 | 88 | 126 | 6.0 | 11.0 | 0.00 | 0.00 | 0.00 | 36 | 1019.4 |
| 20260906201539 | 87 | 123 | 3.0 | 13.0 | 0.00 | 0.00 | 0.00 | 37 | 1019.4 |
| 20260906201018 | 88 | 97 | 4.0 | 13.0 | 0.00 | 0.00 | 0.00 | 36 | 1019.4 |
| 20260906200524 | 88 | 126 | 5.0 | 13.0 | 0.00 | 0.00 | 0.00 | 35 | 1019.5 |
| 20260906200050 | 87 | 165 | 3.0 | 11.0 | 0.00 | 0.00 | 0.00 | 36 | 1019.6 |
| 20260906195518 | 87 | 119 | 4.0 | 12.0 | 0.00 | 0.00 | 0.00 | 38 | 1019.6 |
| 20260906195018 | 88 | 117 | 5.0 | 12.0 | 0.00 | 0.00 | 0.00 | 37 | 1019.7 |
| 20260906194554 | 87 | 104 | 3.0 | 12.0 | 0.00 | 0.00 | 0.00 | 39 | 1019.6 |
| 20260906194018 | 88 | 113 | 4.0 | 12.0 | 0.00 | 0.00 | 0.00 | 39 | 1019.8 |
| 20260906193519 | 87 | 96 | 5.0 | 11.0 | 0.00 | 0.00 | 0.00 | 39 | 1019.9 |
| 20260906193039 | 87 | 72 | 4.0 | 11.0 | 0.00 | 0.00 | 0.00 | 39 | 1019.8 |
| 20260906192520 | 86 | 89 | 3.0 | 13.0 | 0.00 | 0.00 | 0.00 | 39 | 1020.0 |
| 20260906192018 | 86 | 139 | 4.0 | 13.0 | 0.00 | 0.00 | 0.00 | 39 | 1020.0 |
| 20260906191535 | 86 | 101 | 4.0 | 12.0 | 0.00 | 0.00 | 0.00 | 38 | 1020.2 |
| 20260906191017 | 86 | 0 | 3.0 | 10.0 | 0.00 | 0.00 | 0.00 | 37 | 1020.2 |
| 20260906190516 | 85 | 97 | 1.0 | 8.0 | 0.00 | 0.00 | 0.00 | 37 | 1020.3 |
| 20260906190039 | 86 | 59 | 3.0 | 9.0 | 0.00 | 0.00 | 0.00 | 37 | 1020.3 |
| 20260906185519 | 85 | 131 | 2.0 | 9.0 | 0.00 | 0.00 | 0.00 | 37 | 1020.4 |
| 20260906185019 | 85 | 104 | 2.0 | 9.0 | 0.00 | 0.00 | 0.00 | 38 | 1020.5 |
| 20260906184539 | 84 | 0 | 1.0 | 8.0 | 0.00 | 0.00 | 0.00 | 38 | 1020.6 |
| 20260906184020 | 84 | 149 | 1.0 | 9.0 | 0.00 | 0.00 | 0.00 | 38 | 1020.8 |
| 20260906183522 | 84 | 0 | 1.0 | 9.0 | 0.00 | 0.00 | 0.00 | 38 | 1020.8 |
| 20260906183046 | 84 | 0 | 3.0 | 8.0 | 0.00 | 0.00 | 0.00 | 39 | 1020.9 |
| 20260906182522 | 83 | 211 | 1.0 | 6.0 | 0.00 | 0.00 | 0.00 | 39 | 1021.0 |
| 20260906182021 | 83 | 195 | 1.0 | 16.0 | 0.00 | 0.00 | 0.00 | 39 | 1021.2 |
| 20260906181543 | 83 | 263 | 1.0 | 16.0 | 0.00 | 0.00 | 0.00 | 39 | 1021.4 |
| 20260906181019 | 83 | 239 | 3.0 | 16.0 | 0.00 | 0.00 | 0.00 | 40 | 1021.6 |
| 20260906180519 | 82 | 295 | 1.0 | 7.0 | 0.00 | 0.00 | 0.00 | 41 | 1021.7 |
| 20260906180046 | 81 | 0 | 1.0 | 9.0 | 0.00 | 0.00 | 0.00 | 41 | 1021.8 |
| 20260906175519 | 81 | 349 | 2.0 | 9.0 | 0.00 | 0.00 | 0.00 | 41 | 1021.8 |
| 20260906175025 | 81 | 294 | 2.0 | 9.0 | 0.00 | 0.00 | 0.00 | 41 | 1021.8 |
| 20260906174541 | 81 | 5 | 1.0 | 8.0 | 0.00 | 0.00 | 0.00 | 42 | 1021.9 |
| 20260906174018 | 81 | 315 | 2.0 | 9.0 | 0.00 | 0.00 | 0.00 | 43 | 1021.8 |
| 20260906173520 | 80 | 320 | 3.0 | 9.0 | 0.00 | 0.00 | 0.00 | 44 | 1021.9 |
| 20260906173041 | 80 | 294 | 4.0 | 12.0 | 0.00 | 0.00 | 0.00 | 43 | 1022.1 |
| 20260906172519 | 80 | 9 | 3.0 | 12.0 | 0.00 | 0.00 | 0.00 | 42 | 1022.0 |
| 20260906172021 | 80 | 300 | 5.0 | 10.0 | 0.00 | 0.00 | 0.00 | 44 | 1022.0 |
| 20260906171538 | 79 | 289 | 3.0 | 10.0 | 0.00 | 0.00 | 0.00 | 43 | 1022.1 |
| 20260906171026 | 79 | 323 | 2.0 | 9.0 | 0.00 | 0.00 | 0.00 | 45 | 1022.2 |
| 20260906170525 | 78 | 319 | 2.0 | 9.0 | 0.00 | 0.00 | 0.00 | 45 | 1022.0 |
| 20260906170051 | 78 | 317 | 3.0 | 10.0 | 0.00 | 0.00 | 0.00 | 48 | 1022.1 |
| 20260906165521 | 78 | 323 | 3.0 | 10.0 | 0.00 | 0.00 | 0.00 | 50 | 1022.2 |
| 20260906165022 | 77 | 350 | 4.0 | 10.0 | 0.00 | 0.00 | 0.00 | 49 | 1022.2 |
| 20260906164552 | 76 | 289 | 3.0 | 10.0 | 0.00 | 0.00 | 0.00 | 52 | 1022.2 |
| 20260906164020 | 76 | 271 | 5.0 | 10.0 | 0.00 | 0.00 | 0.00 | 54 | 1022.3 |
| 20260906163516 | 75 | 309 | 5.0 | 11.0 | 0.00 | 0.00 | 0.00 | 55 | 1022.3 |
| 20260906163048 | 76 | 305 | 5.0 | 11.0 | 0.00 | 0.00 | 0.00 | 56 | 1022.2 |
| 20260906162519 | 75 | 256 | 7.0 | 11.0 | 0.00 | 0.00 | 0.00 | 60 | 1022.3 |
| 20260906162019 | 74 | 276 | 7.0 | 15.0 | 0.00 | 0.00 | 0.00 | 61 | 1022.4 |
| 20260906161539 | 73 | 290 | 8.0 | 15.0 | 0.00 | 0.00 | 0.00 | 62 | 1022.4 |
| 20260906161019 | 73 | 304 | 8.0 | 13.0 | 0.00 | 0.00 | 0.00 | 64 | 1022.5 |
| 20260906160518 | 72 | 269 | 6.0 | 13.0 | 0.00 | 0.00 | 0.00 | 66 | 1022.5 |
| 20260906160050 | 72 | 279 | 7.0 | 13.0 | 0.00 | 0.00 | 0.00 | 66 | 1022.4 |
| 20260906155524 | 71 | 286 | 7.0 | 13.0 | 0.00 | 0.00 | 0.00 | 67 | 1022.4 |
| 20260906155019 | 72 | 269 | 7.0 | 12.0 | 0.00 | 0.00 | 0.00 | 67 | 1022.4 |
| 20260906154543 | 72 | 273 | 8.0 | 14.0 | 0.00 | 0.00 | 0.00 | 66 | 1022.3 |
| 20260906154020 | 71 | 278 | 7.0 | 14.0 | 0.00 | 0.00 | 0.00 | 69 | 1022.3 |
| 20260906153516 | 71 | 291 | 7.0 | 12.0 | 0.00 | 0.00 | 0.00 | 69 | 1022.3 |
| 20260906153045 | 71 | 307 | 7.0 | 12.0 | 0.00 | 0.00 | 0.00 | 70 | 1022.3 |
| 20260906152522 | 70 | 292 | 7.0 | 12.0 | 0.00 | 0.00 | 0.00 | 70 | 1022.2 |
| 20260906152020 | 69 | 263 | 5.0 | 11.0 | 0.00 | 0.00 | 0.00 | 72 | 1022.2 |
| 20260906151538 | 69 | 305 | 4.0 | 12.0 | 0.00 | 0.00 | 0.00 | 73 | 1022.3 |
| 20260906151018 | 69 | 311 | 5.0 | 13.0 | 0.00 | 0.00 | 0.00 | 73 | 1022.3 |
| 20260906150521 | 68 | 292 | 8.0 | 15.0 | 0.00 | 0.00 | 0.00 | 74 | 1022.3 |
| 20260906150052 | 68 | 306 | 9.0 | 15.0 | 0.00 | 0.00 | 0.00 | 74 | 1022.4 |
| 20260906145520 | 68 | 300 | 11.0 | 15.0 | 0.00 | 0.00 | 0.00 | 75 | 1022.2 |
| 20260906145021 | 68 | 306 | 12.0 | 17.0 | 0.00 | 0.00 | 0.00 | 75 | 1022.1 |
| 20260906144555 | 67 | 306 | 11.0 | 17.0 | 0.00 | 0.00 | 0.00 | 75 | 1022.1 |
| 20260906144018 | 67 | 277 | 12.0 | 18.0 | 0.00 | 0.00 | 0.00 | 75 | 1022.1 |
| 20260906143520 | 66 | 281 | 13.0 | 18.0 | 0.00 | 0.00 | 0.00 | 76 | 1022.0 |
| 20260906143038 | 66 | 281 | 14.0 | 18.0 | 0.00 | 0.00 | 0.00 | 77 | 1022.0 |
| 20260906142521 | 65 | 279 | 14.0 | 18.0 | 0.00 | 0.00 | 0.00 | 77 | 1022.0 |
| 20260906142019 | 65 | 278 | 14.0 | 18.0 | 0.00 | 0.00 | 0.00 | 78 | 1022.0 |
| 20260906141543 | 64 | 274 | 14.0 | 19.0 | 0.00 | 0.00 | 0.00 | 78 | 1022.0 |
| 20260906141018 | 65 | 279 | 15.0 | 19.0 | 0.00 | 0.00 | 0.00 | 78 | 1022.0 |
| 20260906140516 | 64 | 281 | 14.0 | 18.0 | 0.00 | 0.00 | 0.00 | 78 | 1021.9 |
| 20260906140041 | 64 | 276 | 14.0 | 18.0 | 0.00 | 0.00 | 0.00 | 77 | 1021.8 |
| 20260906135516 | 63 | 277 | 13.0 | 17.0 | 0.00 | 0.00 | 0.00 | 77 | 1021.8 |
| 20260906135018 | 63 | 271 | 14.0 | 17.0 | 0.00 | 0.00 | 0.00 | 78 | 1021.8 |
| 20260906134541 | 62 | 270 | 13.0 | 16.0 | 0.00 | 0.00 | 0.00 | 78 | 1021.7 |
| 20260906134018 | 62 | 275 | 13.0 | 16.0 | 0.00 | 0.00 | 0.00 | 79 | 1021.6 |
| 20260906133522 | 62 | 275 | 12.0 | 16.0 | 0.00 | 0.00 | 0.00 | 79 | 1021.6 |
| 20260906133039 | 61 | 275 | 11.0 | 15.0 | 0.00 | 0.00 | 0.00 | 80 | 1021.6 |
| 20260906132518 | 60 | 288 | 11.0 | 15.0 | 0.00 | 0.00 | 0.00 | 80 | 1021.5 |
| 20260906132022 | 60 | 281 | 12.0 | 15.0 | 0.00 | 0.00 | 0.00 | 80 | 1021.4 |
| 20260906131539 | 60 | 272 | 12.0 | 15.0 | 0.00 | 0.00 | 0.00 | 81 | 1021.4 |
| 20260906131020 | 60 | 269 | 12.0 | 14.0 | 0.00 | 0.00 | 0.00 | 82 | 1021.5 |
| 20260906130519 | 59 | 270 | 10.0 | 14.0 | 0.00 | 0.00 | 0.00 | 83 | 1021.4 |
| 20260906130045 | 59 | 265 | 11.0 | 14.0 | 0.00 | 0.00 | 0.00 | 84 | 1021.4 |
| 20260906125519 | 59 | 267 | 11.0 | 14.0 | 0.00 | 0.00 | 0.00 | 83 | 1021.4 |
| 20260906125019 | 59 | 275 | 11.0 | 14.0 | 0.00 | 0.00 | 0.00 | 83 | 1021.6 |
| 20260906124539 | 58 | 272 | 10.0 | 14.0 | 0.00 | 0.00 | 0.00 | 82 | 1021.5 |
| 20260906124018 | 58 | 274 | 11.0 | 13.0 | 0.00 | 0.00 | 0.00 | 80 | 1021.4 |
| 20260906123518 | 57 | 264 | 10.0 | 13.0 | 0.00 | 0.00 | 0.00 | 78 | 1021.4 |
| 20260906123039 | 57 | 264 | 10.0 | 12.0 | 0.00 | 0.00 | 0.00 | 78 | 1021.4 |
| 20260906122519 | 57 | 270 | 10.0 | 12.0 | 0.00 | 0.00 | 0.00 | 78 | 1021.4 |
| 20260906122018 | 57 | 273 | 10.0 | 12.0 | 0.00 | 0.00 | 0.00 | 78 | 1021.3 |
| 20260906121541 | 57 | 271 | 10.0 | 11.0 | 0.00 | 0.00 | 0.00 | 77 | 1021.3 |
| 20260906121017 | 57 | 279 | 9.0 | 11.0 | 0.00 | 0.00 | 0.00 | 76 | 1021.3 |
| 20260906120520 | 57 | 281 | 9.0 | 11.0 | 0.00 | 0.00 | 0.00 | 76 | 1021.4 |
| 20260906120047 | 57 | 287 | 9.0 | 11.0 | 0.00 | 0.00 | 0.00 | 75 | 1021.3 |
| 20260906115518 | 57 | 284 | 9.0 | 11.0 | 0.00 | 0.00 | 0.00 | 75 | 1021.2 |
| 20260906115019 | 57 | 273 | 9.0 | 11.0 | 0.00 | 0.00 | 0.00 | 74 | 1021.2 |
| 20260906114543 | 57 | 272 | 8.0 | 9.0 | 0.00 | 0.00 | 0.00 | 75 | 1021.3 |
| 20260906114023 | 57 | 268 | 6.0 | 8.0 | 0.00 | 0.00 | 0.00 | 75 | 1021.3 |
| 20260906113522 | 57 | 263 | 7.0 | 10.0 | 0.00 | 0.00 | 0.00 | 75 | 1021.3 |
| 20260906113038 | 57 | 268 | 7.0 | 10.0 | 0.00 | 0.00 | 0.00 | 74 | 1021.2 |
| 20260906112517 | 57 | 259 | 8.0 | 10.0 | 0.00 | 0.00 | 0.00 | 73 | 1021.3 |
| 20260906112021 | 58 | 252 | 8.0 | 10.0 | 0.00 | 0.00 | 0.00 | 71 | 1021.4 |
| 20260906111547 | 59 | 255 | 6.0 | 10.0 | 0.00 | 0.00 | 0.00 | 70 | 1021.4 |
| 20260906111018 | 60 | 269 | 7.0 | 10.0 | 0.00 | 0.00 | 0.00 | 71 | 1021.2 |
| 20260906110519 | 59 | 275 | 6.0 | 8.0 | 0.00 | 0.00 | 0.00 | 71 | 1021.3 |
| 20260906110042 | 59 | 273 | 6.0 | 8.0 | 0.00 | 0.00 | 0.00 | 71 | 1021.3 |
| 20260906105518 | 59 | 263 | 6.0 | 8.0 | 0.00 | 0.00 | 0.00 | 70 | 1021.1 |
| 20260906105018 | 59 | 275 | 4.0 | 8.0 | 0.00 | 0.00 | 0.00 | 71 | 1021.3 |
| 20260906104543 | 59 | 245 | 6.0 | 8.0 | 0.00 | 0.00 | 0.00 | 70 | 1021.3 |
| 20260906104020 | 60 | 248 | 6.0 | 8.0 | 0.00 | 0.00 | 0.00 | 69 | 1021.2 |
| 20260906103520 | 60 | 254 | 5.0 | 8.0 | 0.00 | 0.00 | 0.00 | 69 | 1021.3 |
| 20260906103038 | 60 | 243 | 6.0 | 9.0 | 0.00 | 0.00 | 0.00 | 69 | 1021.2 |
| 20260906102519 | 60 | 234 | 6.0 | 9.0 | 0.00 | 0.00 | 0.00 | 68 | 1021.2 |
| 20260906102019 | 61 | 246 | 8.0 | 9.0 | 0.00 | 0.00 | 0.00 | 67 | 1021.1 |
| 20260906101538 | 61 | 243 | 4.0 | 7.0 | 0.00 | 0.00 | 0.00 | 67 | 1021.1 |
| 20260906101018 | 61 | 231 | 3.0 | 4.0 | 0.00 | 0.00 | 0.00 | 67 | 1021.2 |
| 20260906100524 | 61 | 231 | 3.0 | 4.0 | 0.00 | 0.00 | 0.00 | 67 | 1021.2 |
| 20260906100041 | 61 | 231 | 2.0 | 7.0 | 0.00 | 0.00 | 0.00 | 67 | 1021.1 |
| 20260906095522 | 61 | 238 | 4.0 | 9.0 | 0.00 | 0.00 | 0.00 | 67 | 1021.1 |
| 20260906095021 | 61 | 245 | 5.0 | 9.0 | 0.00 | 0.00 | 0.00 | 66 | 1021.0 |
| 20260906094606 | 62 | 244 | 7.0 | 9.0 | 0.00 | 0.00 | 0.00 | 65 | 1021.0 |
| 20260906094017 | 63 | 257 | 5.0 | 8.0 | 0.00 | 0.00 | 0.00 | 64 | 1021.0 |
| 20260906093519 | 63 | 269 | 5.0 | 6.0 | 0.00 | 0.00 | 0.00 | 64 | 1021.0 |
| 20260906093040 | 63 | 278 | 3.0 | 6.0 | 0.00 | 0.00 | 0.00 | 64 | 1020.9 |
| 20260906092516 | 63 | 265 | 4.0 | 6.0 | 0.00 | 0.00 | 0.00 | 63 | 1021.0 |
| 20260906092021 | 63 | 281 | 3.0 | 4.0 | 0.00 | 0.00 | 0.00 | 63 | 1021.0 |
| 20260906091543 | 62 | 282 | 1.0 | 6.0 | 0.00 | 0.00 | 0.00 | 64 | 1021.0 |
| 20260906091021 | 62 | 282 | 2.0 | 8.0 | 0.00 | 0.00 | 0.00 | 64 | 1021.0 |
| 20260906090521 | 62 | 277 | 5.0 | 8.0 | 0.00 | 0.00 | 0.00 | 63 | 1020.7 |
| 20260906090038 | 63 | 279 | 7.0 | 8.0 | 0.00 | 0.00 | 0.00 | 62 | 1020.6 |
| 20260906085518 | 63 | 275 | 6.0 | 9.0 | 0.00 | 0.00 | 0.00 | 61 | 1020.8 |
| 20260906085020 | 63 | 283 | 7.0 | 9.0 | 0.00 | 0.00 | 0.00 | 61 | 1020.8 |
| 20260906084541 | 63 | 271 | 7.0 | 9.0 | 0.00 | 0.00 | 0.00 | 61 | 1020.8 |
| 20260906084019 | 64 | 258 | 6.0 | 8.0 | 0.00 | 0.00 | 0.00 | 59 | 1020.8 |
| 20260906083523 | 64 | 275 | 5.0 | 8.0 | 0.00 | 0.00 | 0.00 | 58 | 1021.0 |
| 20260906083039 | 65 | 258 | 4.0 | 7.0 | 0.00 | 0.00 | 0.00 | 56 | 1021.0 |
| 20260906082518 | 65 | 258 | 1.0 | 9.0 | 0.00 | 0.00 | 0.00 | 56 | 1021.3 |
| 20260906082020 | 66 | 258 | 2.0 | 9.0 | 0.00 | 0.00 | 0.00 | 56 | 1021.2 |
| 20260906081548 | 67 | 238 | 7.0 | 9.0 | 0.00 | 0.00 | 0.00 | 54 | 1021.1 |
| 20260906081021 | 67 | 269 | 3.0 | 6.0 | 0.00 | 0.00 | 0.00 | 54 | 1021.3 |
| 20260906080523 | 67 | 160 | 2.0 | 5.0 | 0.00 | 0.00 | 0.00 | 55 | 1021.5 |
| 20260906080045 | 67 | 160 | 2.0 | 5.0 | 0.00 | 0.00 | 0.00 | 54 | 1021.4 |
| 20260906075517 | 67 | 86 | 2.0 | 6.0 | 0.00 | 0.00 | 0.00 | 54 | 1021.4 |
| 20260906075022 | 66 | 86 | 0.0 | 8.0 | 0.00 | 0.00 | 0.00 | 55 | 1021.4 |
| 20260906074540 | 66 | 86 | 4.0 | 9.0 | 0.00 | 0.00 | 0.00 | 55 | 1021.4 |
| 20260906074017 | 66 | 94 | 6.0 | 9.0 | 0.00 | 0.00 | 0.00 | 55 | 1021.5 |
| 20260906073519 | 67 | 246 | 4.0 | 8.0 | 0.00 | 0.00 | 0.00 | 54 | 1021.1 |
| 20260906073039 | 67 | 269 | 7.0 | 8.0 | 0.00 | 0.00 | 0.00 | 54 | 1021.0 |
| 20260906072521 | 67 | 264 | 7.0 | 8.0 | 0.00 | 0.00 | 0.00 | 54 | 1020.9 |
| 20260906072018 | 67 | 271 | 7.0 | 10.0 | 0.00 | 0.00 | 0.00 | 54 | 1020.9 |
| 20260906071537 | 67 | 256 | 6.0 | 10.0 | 0.00 | 0.00 | 0.00 | 54 | 1020.8 |
| 20260906071019 | 67 | 259 | 8.0 | 10.0 | 0.00 | 0.00 | 0.00 | 55 | 1020.9 |
| 20260906070528 | 67 | 254 | 4.0 | 7.0 | 0.00 | 0.00 | 0.00 | 54 | 1020.8 |
| 20260906070042 | 67 | 255 | 4.0 | 9.0 | 0.00 | 0.00 | 0.00 | 52 | 1020.7 |
| 20260906065519 | 68 | 265 | 4.0 | 9.0 | 0.00 | 0.00 | 0.00 | 51 | 1020.7 |
| 20260906065017 | 69 | 291 | 7.0 | 12.0 | 0.00 | 0.00 | 0.00 | 49 | 1020.6 |
| 20260906064539 | 70 | 294 | 7.0 | 12.0 | 0.00 | 0.00 | 0.00 | 48 | 1020.6 |
| 20260906064018 | 70 | 313 | 7.0 | 12.0 | 0.00 | 0.00 | 0.00 | 49 | 1020.6 |
| 20260906063521 | 70 | 325 | 8.0 | 13.0 | 0.00 | 0.00 | 0.00 | 49 | 1020.6 |
| 20260906063044 | 69 | 298 | 10.0 | 13.0 | 0.00 | 0.00 | 0.00 | 51 | 1020.5 |
| 20260906062522 | 69 | 279 | 11.0 | 14.0 | 0.00 | 0.00 | 0.00 | 50 | 1020.7 |
| 20260906062019 | 70 | 293 | 9.0 | 14.0 | 0.00 | 0.00 | 0.00 | 48 | 1020.7 |
| 20260906061541 | 71 | 299 | 10.0 | 14.0 | 0.00 | 0.00 | 0.00 | 47 | 1020.8 |
| 20260906061021 | 72 | 286 | 9.0 | 14.0 | 0.00 | 0.00 | 0.00 | 46 | 1021.0 |
| 20260906060519 | 72 | 289 | 9.0 | 15.0 | 0.00 | 0.00 | 0.00 | 46 | 1020.9 |
| 20260906060039 | 73 | 287 | 10.0 | 15.0 | 0.00 | 0.00 | 0.00 | 45 | 1020.9 |
| 20260906055518 | 73 | 287 | 10.0 | 18.0 | 0.00 | 0.00 | 0.00 | 45 | 1020.8 |
| 20260906055016 | 73 | 284 | 10.0 | 18.0 | 0.00 | 0.00 | 0.00 | 45 | 1020.9 |
| 20260906054540 | 72 | 307 | 12.0 | 16.0 | 0.00 | 0.00 | 0.00 | 46 | 1020.9 |
| 20260906054019 | 72 | 286 | 8.0 | 14.0 | 0.00 | 0.00 | 0.00 | 46 | 1020.8 |
| 20260906053519 | 72 | 288 | 9.0 | 16.0 | 0.00 | 0.00 | 0.00 | 45 | 1020.8 |
| 20260906053037 | 72 | 274 | 11.0 | 16.0 | 0.00 | 0.00 | 0.00 | 45 | 1020.8 |
| 20260906052520 | 71 | 261 | 9.0 | 13.0 | 0.00 | 0.00 | 0.00 | 47 | 1020.9 |
| 20260906052020 | 70 | 260 | 8.0 | 11.0 | 0.00 | 0.00 | 0.00 | 48 | 1020.9 |
| 20260906051540 | 70 | 268 | 8.0 | 11.0 | 0.00 | 0.00 | 0.00 | 47 | 1021.0 |
| 20260906051016 | 70 | 274 | 8.0 | 10.0 | 0.00 | 0.00 | 0.00 | 47 | 1020.9 |
| 20260906050516 | 70 | 283 | 8.0 | 10.0 | 0.00 | 0.00 | 0.00 | 47 | 1021.0 |
| 20260906050041 | 70 | 288 | 8.0 | 11.0 | 0.00 | 0.00 | 0.00 | 47 | 1021.1 |
| 20260906045524 | 71 | 272 | 8.0 | 11.0 | 0.00 | 0.00 | 0.00 | 47 | 1021.1 |
| 20260906045018 | 70 | 277 | 9.0 | 11.0 | 0.00 | 0.00 | 0.00 | 48 | 1021.0 |
| 20260906044542 | 70 | 271 | 9.0 | 11.0 | 0.00 | 0.00 | 0.00 | 49 | 1021.0 |
| 20260906044024 | 69 | 273 | 8.0 | 10.0 | 0.00 | 0.00 | 0.00 | 49 | 1021.1 |
| 20260906043525 | 69 | 276 | 8.0 | 10.0 | 0.00 | 0.00 | 0.00 | 49 | 1021.0 |
| 20260906043045 | 68 | 287 | 8.0 | 10.0 | 0.00 | 0.00 | 0.00 | 49 | 1021.0 |
| 20260906042517 | 69 | 261 | 7.0 | 9.0 | 0.00 | 0.00 | 0.00 | 47 | 1021.0 |
| 20260906042016 | 70 | 252 | 5.0 | 8.0 | 0.00 | 0.00 | 0.00 | 46 | 1021.0 |
| 20260906041541 | 71 | 277 | 5.0 | 8.0 | 0.00 | 0.00 | 0.00 | 45 | 1021.0 |
| 20260906041024 | 72 | 279 | 3.0 | 8.0 | 0.00 | 0.00 | 0.00 | 43 | 1021.0 |
| 20260906040523 | 73 | 290 | 5.0 | 12.0 | 0.00 | 0.00 | 0.00 | 43 | 1020.9 |
| 20260906040040 | 75 | 278 | 7.0 | 12.0 | 0.00 | 0.00 | 0.00 | 41 | 1021.0 |
| 20260906035521 | 75 | 317 | 3.0 | 8.0 | 0.00 | 0.00 | 0.00 | 41 | 1020.9 |
| 20260906035021 | 75 | 175 | 5.0 | 8.0 | 0.00 | 0.00 | 0.00 | 43 | 1021.0 |
| 20260906034544 | 76 | 163 | 4.0 | 8.0 | 0.00 | 0.00 | 0.00 | 39 | 1021.0 |
| 20260906034017 | 76 | 171 | 4.0 | 8.0 | 0.00 | 0.00 | 0.00 | 36 | 1021.0 |
| 20260906033516 | 77 | 190 | 3.0 | 6.0 | 0.00 | 0.00 | 0.00 | 35 | 1021.1 |
| 20260906033041 | 77 | 175 | 3.0 | 6.0 | 0.00 | 0.00 | 0.00 | 35 | 1021.1 |
| 20260906032522 | 77 | 194 | 2.0 | 13.0 | 0.00 | 0.00 | 0.00 | 34 | 1021.2 |
| 20260906032016 | 77 | 302 | 4.0 | 13.0 | 0.00 | 0.00 | 0.00 | 35 | 1021.2 |
| 20260906031548 | 77 | 360 | 5.0 | 18.0 | 0.00 | 0.00 | 0.00 | 35 | 1021.2 |
| 20260906031019 | 77 | 44 | 6.0 | 18.0 | 0.00 | 0.00 | 0.00 | 36 | 1021.3 |
| 20260906030520 | 76 | 101 | 7.0 | 14.0 | 0.00 | 0.00 | 0.00 | 43 | 1021.0 |
| 20260906030039 | 75 | 86 | 5.0 | 10.0 | 0.00 | 0.00 | 0.00 | 37 | 1021.0 |
| 20260906025521 | 75 | 95 | 6.0 | 13.0 | 0.00 | 0.00 | 0.00 | 36 | 1020.7 |
| 20260906025020 | 76 | 360 | 3.0 | 13.0 | 0.00 | 0.00 | 0.00 | 36 | 1020.2 |
| 20260906024543 | 76 | 330 | 5.0 | 10.0 | 0.00 | 0.00 | 0.00 | 37 | 1020.0 |
| 20260906024025 | 75 | 346 | 5.0 | 9.0 | 0.00 | 0.00 | 0.00 | 38 | 1020.0 |
| 20260906023518 | 74 | 288 | 5.0 | 11.0 | 0.00 | 0.00 | 0.00 | 40 | 1019.8 |
| 20260906023049 | 75 | 279 | 7.0 | 11.0 | 0.00 | 0.00 | 0.00 | 39 | 1019.7 |
| 20260906022518 | 76 | 257 | 4.0 | 9.0 | 0.00 | 0.00 | 0.00 | 37 | 1019.6 |
| 20260906022019 | 76 | 225 | 5.0 | 10.0 | 0.00 | 0.00 | 0.00 | 37 | 1019.6 |
| 20260906021540 | 76 | 209 | 6.0 | 10.0 | 0.00 | 0.00 | 0.00 | 36 | 1019.5 |
| 20260906021017 | 77 | 200 | 7.0 | 10.0 | 0.00 | 0.00 | 0.00 | 36 | 1019.5 |
| 20260906020520 | 77 | 202 | 7.0 | 11.0 | 0.00 | 0.00 | 0.00 | 35 | 1019.4 |
| 20260906020052 | 78 | 197 | 8.0 | 11.0 | 0.00 | 0.00 | 0.00 | 35 | 1019.2 |
| 20260906015524 | 78 | 190 | 7.0 | 11.0 | 0.00 | 0.00 | 0.00 | 34 | 1019.2 |
| 20260906015019 | 79 | 189 | 7.0 | 12.0 | 0.00 | 0.00 | 0.00 | 33 | 1019.2 |
| 20260906014550 | 79 | 190 | 7.0 | 12.0 | 0.00 | 0.00 | 0.00 | 33 | 1019.2 |
| 20260906014027 | 79 | 186 | 7.0 | 12.0 | 0.00 | 0.00 | 0.00 | 33 | 1019.2 |
| 20260906013519 | 79 | 191 | 8.0 | 12.0 | 0.00 | 0.00 | 0.00 | 33 | 1019.1 |
| 20260906013039 | 79 | 190 | 7.0 | 11.0 | 0.00 | 0.00 | 0.00 | 33 | 1019.0 |
| 20260906012518 | 80 | 191 | 5.0 | 9.0 | 0.00 | 0.00 | 0.00 | 33 | 1019.1 |
| 20260906012021 | 80 | 186 | 5.0 | 9.0 | 0.00 | 0.00 | 0.00 | 32 | 1019.1 |
| 20260906011538 | 81 | 187 | 4.0 | 8.0 | 0.00 | 0.00 | 0.00 | 32 | 1019.1 |
| 20260906011117 | 81 | 186 | 4.0 | 8.0 | 0.00 | 0.00 | 0.00 | 31 | 1019.1 |
| 20260906010520 | 82 | 186 | 3.0 | 8.0 | 0.00 | 0.00 | 0.00 | 30 | 1019.1 |
| 20260906010043 | 83 | 195 | 3.0 | 8.0 | 0.00 | 0.00 | 0.00 | 29 | 1019.2 |
| 20260906005516 | 84 | 182 | 3.0 | 9.0 | 0.00 | 0.00 | 0.00 | 29 | 1019.0 |
| 20260906005019 | 85 | 163 | 4.0 | 9.0 | 0.00 | 0.00 | 0.00 | 28 | 1019.1 |
| 20260906004539 | 85 | 165 | 4.0 | 10.0 | 0.00 | 0.00 | 0.00 | 28 | 1019.2 |
| 20260906004022 | 86 | 171 | 4.0 | 10.0 | 0.00 | 0.00 | 0.00 | 27 | 1019.2 |
| 20260906003524 | 86 | 172 | 4.0 | 9.0 | 0.00 | 0.00 | 0.00 | 26 | 1019.2 |
| 20260906003044 | 87 | 152 | 4.0 | 10.0 | 0.00 | 0.00 | 0.00 | 26 | 1019.1 |
| 20260906002518 | 87 | 175 | 4.0 | 10.0 | 0.00 | 0.00 | 0.00 | 26 | 1019.0 |
| 20260906002018 | 87 | 0 | 2.0 | 10.0 | 0.00 | 0.00 | 0.00 | 25 | 1018.9 |
| 20260906001539 | 88 | 151 | 4.0 | 12.0 | 0.00 | 0.00 | 0.00 | 25 | 1018.9 |
| 20260906001018 | 88 | 140 | 4.0 | 12.0 | 0.00 | 0.00 | 0.00 | 25 | 1018.9 |
| 20260906000518 | 89 | 134 | 4.0 | 12.0 | 0.00 | 0.00 | 0.00 | 24 | 1018.8 |
| 20260906000042 | 89 | 186 | 4.0 | 10.0 | 0.00 | 0.00 | 0.00 | 25 | 1018.8 |
| 20260905235517 | 89 | 175 | 4.0 | 10.0 | 0.00 | 0.00 | 0.00 | 24 | 1018.8 |
| 20260905235019 | 90 | 177 | 2.0 | 10.0 | 0.00 | 0.00 | 0.00 | 24 | 1018.8 |
| 20260905234540 | 90 | 0 | 3.0 | 10.0 | 0.00 | 0.00 | 0.00 | 24 | 1018.8 |
| 20260905234031 | 90 | 193 | 4.0 | 9.0 | 0.00 | 0.00 | 0.00 | 24 | 1018.7 |
| 20260905233519 | 90 | 123 | 2.0 | 7.0 | 0.00 | 0.00 | 0.00 | 23 | 1018.7 |
| 20260905233042 | 90 | 38 | 2.0 | 8.0 | 0.00 | 0.00 | 0.00 | 23 | 1018.7 |
| 20260905232518 | 90 | 85 | 2.0 | 8.0 | 0.00 | 0.00 | 0.00 | 22 | 1018.7 |
| 20260905232019 | 90 | 115 | 3.0 | 8.0 | 0.00 | 0.00 | 0.00 | 22 | 1018.7 |
| 20260905231541 | 91 | 82 | 2.0 | 9.0 | 0.00 | 0.00 | 0.00 | 23 | 1018.7 |
| 20260905231018 | 91 | 130 | 3.0 | 9.0 | 0.00 | 0.00 | 0.00 | 22 | 1018.6 |
| 20260905230521 | 91 | 114 | 1.0 | 6.0 | 0.00 | 0.00 | 0.00 | 23 | 1018.7 |
| 20260905230050 | 90 | 197 | 2.0 | 9.0 | 0.00 | 0.00 | 0.00 | 23 | 1018.7 |
| 20260905225517 | 90 | 0 | 2.0 | 9.0 | 0.00 | 0.00 | 0.00 | 23 | 1018.6 |
| 20260905225016 | 89 | 110 | 1.0 | 6.0 | 0.00 | 0.00 | 0.00 | 24 | 1018.6 |
| 20260905224539 | 89 | 0 | 0.0 | 6.0 | 0.00 | 0.00 | 0.00 | 24 | 1018.7 |
| 20260905224021 | 89 | 0 | 1.0 | 9.0 | 0.00 | 0.00 | 0.00 | 24 | 1018.7 |
| 20260905223521 | 90 | 95 | 3.0 | 9.0 | 0.00 | 0.00 | 0.00 | 23 | 1018.8 |
| 20260905223044 | 91 | 89 | 4.0 | 8.0 | 0.00 | 0.00 | 0.00 | 23 | 1018.7 |
| 20260905222519 | 90 | 32 | 1.0 | 5.0 | 0.00 | 0.00 | 0.00 | 23 | 1018.8 |
| 20260905222027 | 90 | 23 | 0.0 | 5.0 | 0.00 | 0.00 | 0.00 | 23 | 1018.7 |
| 20260905221547 | 90 | 44 | 1.0 | 10.0 | 0.00 | 0.00 | 0.00 | 23 | 1018.7 |
| 20260905221018 | 90 | 83 | 3.0 | 10.0 | 0.00 | 0.00 | 0.00 | 23 | 1018.7 |
| 20260905220517 | 90 | 84 | 3.0 | 9.0 | 0.00 | 0.00 | 0.00 | 24 | 1018.7 |
| 20260905220039 | 90 | 73 | 2.0 | 9.0 | 0.00 | 0.00 | 0.00 | 24 | 1018.8 |
| 20260905215524 | 90 | 19 | 3.0 | 9.0 | 0.00 | 0.00 | 0.00 | 23 | 1019.0 |
| 20260905215018 | 89 | 43 | 4.0 | 9.0 | 0.00 | 0.00 | 0.00 | 25 | 1018.9 |
| 20260905214541 | 88 | 0 | 2.0 | 10.0 | 0.00 | 0.00 | 0.00 | 23 | 1019.1 |
| 20260905214019 | 87 | 323 | 3.0 | 12.0 | 0.00 | 0.00 | 0.00 | 23 | 1019.0 |
| 20260905213519 | 88 | 9 | 3.0 | 12.0 | 0.00 | 0.00 | 0.00 | 22 | 1019.0 |
| 20260905213043 | 88 | 10 | 3.0 | 11.0 | 0.00 | 0.00 | 0.00 | 23 | 1018.8 |
| 20260905212517 | 89 | 44 | 2.0 | 7.0 | 0.00 | 0.00 | 0.00 | 22 | 1019.0 |
| 20260905212026 | 90 | 80 | 2.0 | 7.0 | 0.00 | 0.00 | 0.00 | 23 | 1019.2 |
| 20260905211545 | 90 | 30 | 2.0 | 9.0 | 0.00 | 0.00 | 0.00 | 22 | 1019.2 |